Weather History for KMQB - March, 2013

Change the Weather History Date:

Wednesday, March 27, 2013

  Actual Average (KBRL) Record (KBRL)
Temperature  
Mean Temperature 32 °F 46 °F  
Max Temperature 42 °F 57 °F 84 °F (1910)
Min Temperature 23 °F 36 °F 15 °F (1964)
Degree Days  
Heating Degree Days 32 19  
Month to date heating degree days 658  
Since 1 July heating degree days 5036  
Cooling Degree Days 0 0  
Month to date cooling degree days 0  
Year to date cooling degree days 0  
Moisture  
Dew Point 24 °F    
Average Humidity 71    
Maximum Humidity 93    
Minimum Humidity 46    
Precipitation  
Precipitation 0.00 in 0.10 in 1.61 in (1956)
Month to date precipitation 2.39  
Year to date precipitation 5.25  
Sea Level Pressure  
Sea Level Pressure 30.36 in    
Wind  
Wind Speed 4 mph (WNW)    
Max Wind Speed 7 mph    
Max Gust Speed -    
Visibility 10 miles    
Events      
T = Trace of Precipitation, MM = Missing Value Source: NWS Daily Summary

Daily Weather History Graph

Daily Weather History Graph

Search for Another Location

Airport or City:

Trip Planner

Search our weather history database for the weather conditions in past years. The results will help you decide how hot, cold, wet, or windy it might be!

Date:

Astronomy

Mar. 27, 2013 Rise Set
Actual Time 6:54 AM CDT 7:22 PM CDT
Civil Twilight 6:26 AM CDT 7:49 PM CDT
Nautical Twilight 5:54 AM CDT 8:22 PM CDT
Astronomical Twilight 5:21 AM CDT 8:55 PM CDT
Moon 8:06 PM CDT (3/27) 6:44 AM CDT (3/27)
Length of Visible Light 13h 23m
Length of Day
12h 28m
Full, 100% of the Moon is Illuminated
Mar 27
Full
Apr 2
Last Quarter
Apr 10
New
Apr 18
First Quarter
Apr 25
Full

Hourly Weather History & Observations

Time (CDT) Temp. Windchill Dew Point Humidity Pressure Visibility Wind Dir Wind Speed Gust Speed Precip Events Conditions
12:15 AM 31.3 °F 25.6 °F 25.9 °F 80% 30.34 in 10.0 mi West 5.8 mph - N/A   Overcast
12:35 AM 32.0 °F 26.4 °F 25.0 °F 75% 30.35 in 10.0 mi West 5.8 mph - N/A   Overcast
12:55 AM 31.8 °F 25.4 °F 24.8 °F 75% 30.35 in 10.0 mi WNW 6.9 mph - N/A   Overcast
1:15 AM 31.3 °F 24.7 °F 25.7 °F 80% 30.35 in 10.0 mi WNW 6.9 mph - N/A   Overcast
1:35 AM 32.0 °F 25.6 °F 26.6 °F 80% 30.35 in 10.0 mi WNW 6.9 mph - N/A   Overcast
1:55 AM 31.1 °F 24.5 °F 25.7 °F 80% 30.35 in 10.0 mi West 6.9 mph - N/A   Overcast
2:15 AM 30.7 °F 27.3 °F 25.7 °F 82% 30.35 in 10.0 mi WNW 3.5 mph - N/A   Overcast
2:35 AM 30.4 °F 25.6 °F 25.0 °F 80% 30.35 in 10.0 mi WNW 4.6 mph - N/A   Overcast
2:55 AM 28.8 °F 23.7 °F 24.8 °F 85% 30.35 in 10.0 mi West 4.6 mph - N/A   Overcast
3:15 AM 28.0 °F - 24.3 °F 86% 30.34 in 10.0 mi Calm Calm - N/A   Mostly Cloudy
3:35 AM 27.0 °F 23.0 °F 23.7 °F 88% 30.34 in 10.0 mi West 3.5 mph - N/A   Mostly Cloudy
3:55 AM 26.8 °F 21.4 °F 23.4 °F 87% 30.34 in 10.0 mi WNW 4.6 mph - N/A   Scattered Clouds
4:15 AM 25.3 °F 18.5 °F 23.0 °F 91% 30.34 in 10.0 mi WNW 5.8 mph - N/A   Clear
4:35 AM 24.8 °F 16.9 °F 23.0 °F 93% 30.34 in 10.0 mi WNW 6.9 mph - N/A   Scattered Clouds
4:55 AM 25.3 °F 17.6 °F 22.8 °F 90% 30.34 in 10.0 mi NW 6.9 mph - N/A   Mostly Cloudy
5:15 AM 25.2 °F 17.3 °F 21.9 °F 87% 30.34 in 10.0 mi WNW 6.9 mph - N/A   Scattered Clouds
5:35 AM 24.6 °F 18.8 °F 21.9 °F 89% 30.34 in 10.0 mi WNW 4.6 mph - N/A   Clear
5:55 AM 24.1 °F 18.2 °F 21.9 °F 91% 30.35 in 10.0 mi West 4.6 mph - N/A   Clear
6:15 AM 24.4 °F 18.6 °F 21.9 °F 90% 30.35 in 10.0 mi West 4.6 mph - N/A   Clear
6:35 AM 24.4 °F 17.5 °F 21.7 °F 89% 30.36 in 10.0 mi West 5.8 mph - N/A   Clear
6:55 AM 24.1 °F 18.2 °F 21.7 °F 91% 30.36 in 10.0 mi West 4.6 mph - N/A   Clear
7:15 AM 23.9 °F - 21.7 °F 91% 30.36 in 10.0 mi Calm Calm - N/A   Clear
7:35 AM 24.4 °F 20.1 °F 21.7 °F 89% 30.36 in 10.0 mi West 3.5 mph - N/A   Clear
7:55 AM 24.3 °F 19.9 °F 21.9 °F 91% 30.37 in 10.0 mi West 3.5 mph - N/A   Clear
8:15 AM 26.6 °F - 23.2 °F 87% 30.38 in 10.0 mi Calm Calm - N/A   Clear
8:35 AM 27.7 °F 23.8 °F 24.4 °F 88% 30.38 in 10.0 mi West 3.5 mph - N/A   Clear
8:55 AM 30.0 °F 26.5 °F 25.2 °F 82% 30.38 in 10.0 mi West 3.5 mph - N/A   Clear
9:15 AM 31.8 °F 28.5 °F 26.4 °F 80% 30.39 in 10.0 mi West 3.5 mph - N/A   Clear
9:35 AM 32.7 °F 29.6 °F 25.0 °F 73% 30.38 in 10.0 mi WNW 3.5 mph - N/A   Clear
9:55 AM 34.0 °F 31.0 °F 25.2 °F 70% 30.39 in 10.0 mi NW 3.5 mph - N/A   Clear
10:15 AM 35.6 °F 32.8 °F 25.3 °F 66% 30.39 in 10.0 mi WNW 3.5 mph - N/A   Clear
10:35 AM 35.6 °F 31.7 °F 25.0 °F 65% 30.40 in 10.0 mi WNW 4.6 mph - N/A   Clear
10:55 AM 35.6 °F 31.7 °F 24.8 °F 65% 30.40 in 10.0 mi NW 4.6 mph - N/A   Clear
11:15 AM 36.7 °F 32.9 °F 24.6 °F 62% 30.40 in 10.0 mi NW 4.6 mph - N/A   Clear
11:35 AM 37.4 °F 32.8 °F 25.2 °F 61% 30.41 in 10.0 mi NW 5.8 mph - N/A   Clear
11:55 AM 37.4 °F 33.8 °F 24.8 °F 60% 30.40 in 10.0 mi NW 4.6 mph - N/A   Clear
12:15 PM 38.3 °F - 22.8 °F 54% 30.39 in 10.0 mi Calm Calm - N/A   Clear
12:35 PM 38.8 °F 36.5 °F 23.0 °F 53% 30.39 in 10.0 mi NNW 3.5 mph - N/A   Clear
12:55 PM 39.0 °F 34.8 °F 23.7 °F 54% 30.38 in 10.0 mi NW 5.8 mph - N/A   Clear
1:15 PM 39.4 °F 37.2 °F 24.1 °F 54% 30.38 in 10.0 mi NNW 3.5 mph - N/A   Clear
1:35 PM 40.8 °F 38.8 °F 25.3 °F 54% 30.38 in 10.0 mi NW 3.5 mph - N/A   Clear
1:55 PM 40.6 °F 38.6 °F 23.2 °F 50% 30.37 in 10.0 mi NNW 3.5 mph - N/A   Clear
2:15 PM 40.3 °F 38.2 °F 22.6 °F 49% 30.37 in 10.0 mi NNE 3.5 mph - N/A   Clear
2:35 PM 41.4 °F 37.6 °F 24.8 °F 52% 30.36 in 10.0 mi West 5.8 mph - N/A   Clear
2:55 PM 41.7 °F 37.3 °F 25.9 °F 53% 30.36 in 10.0 mi West 6.9 mph - N/A   Clear
3:15 PM 41.0 °F 38.0 °F 23.9 °F 51% 30.35 in 10.0 mi NNE 4.6 mph - N/A   Clear
3:35 PM 41.5 °F - 22.8 °F 47% 30.35 in 10.0 mi Calm Calm - N/A   Clear
3:55 PM 41.7 °F 38.0 °F 24.6 °F 51% 30.34 in 10.0 mi West 5.8 mph - N/A   Scattered Clouds
4:15 PM 41.4 °F 39.4 °F 23.2 °F 48% 30.33 in 10.0 mi NW 3.5 mph - N/A   Scattered Clouds
4:35 PM 41.9 °F - 24.1 °F 49% 30.33 in 10.0 mi Calm Calm - N/A   Clear
4:55 PM 42.8 °F - 23.0 °F 46% 30.33 in 10.0 mi Calm Calm - N/A   Clear
5:15 PM 41.7 °F - 22.6 °F 47% 30.33 in 10.0 mi Calm Calm - N/A   Clear
5:35 PM 41.9 °F 40.0 °F 23.2 °F 47% 30.33 in 10.0 mi NW 3.5 mph - N/A   Clear
5:55 PM 41.0 °F 38.0 °F 23.2 °F 49% 30.33 in 10.0 mi SSE 4.6 mph - N/A   Clear
6:15 PM 41.0 °F 39.0 °F 24.3 °F 51% 30.33 in 10.0 mi SSE 3.5 mph - N/A   Clear
6:35 PM 40.5 °F 38.4 °F 25.3 °F 55% 30.33 in 10.0 mi SE 3.5 mph - N/A   Clear
6:55 PM 39.4 °F 36.1 °F 27.7 °F 63% 30.33 in 10.0 mi SSE 4.6 mph - N/A   Clear
7:15 PM 38.3 °F 34.8 °F 26.8 °F 63% 30.33 in 10.0 mi South 4.6 mph - N/A   Clear
7:35 PM 36.1 °F 33.5 °F 27.7 °F 71% 30.33 in 10.0 mi SSE 3.5 mph - N/A   Clear
7:55 PM 34.3 °F - 27.3 °F 76% 30.33 in 10.0 mi Calm Calm - N/A   Clear
8:15 PM 34.5 °F - 26.4 °F 72% 30.33 in 10.0 mi Calm Calm - N/A   Clear
8:35 PM 34.7 °F - 25.7 °F 70% 30.34 in 10.0 mi Calm Calm - N/A   Clear
8:55 PM 34.5 °F - 25.2 °F 69% 30.34 in 10.0 mi Calm Calm - N/A   Clear
9:15 PM 33.3 °F - 25.0 °F 72% 30.35 in 10.0 mi Calm Calm - N/A   Clear
9:35 PM 34.0 °F - 24.3 °F 68% 30.35 in 10.0 mi Calm Calm - N/A   Clear
9:55 PM 34.0 °F - 23.9 °F 67% 30.35 in 10.0 mi Calm Calm - N/A   Clear
10:15 PM 32.0 °F - 25.0 °F 75% 30.35 in 10.0 mi Calm Calm - N/A   Clear
10:35 PM 32.0 °F - 24.6 °F 74% 30.35 in 10.0 mi Calm Calm - N/A   Clear
10:55 PM 31.6 °F - 25.0 °F 76% 30.35 in 10.0 mi Calm Calm - N/A   Clear
11:15 PM 32.0 °F - 24.4 °F 74% 30.35 in 10.0 mi Calm Calm - N/A   Clear
11:35 PM 31.1 °F 27.7 °F 24.8 °F 77% 30.35 in 10.0 mi South 3.5 mph - N/A   Clear
11:55 PM 30.7 °F 27.3 °F 24.8 °F 79% 30.35 in 10.0 mi SSW 3.5 mph - N/A   Clear